{"data":{"norad_id":59042,"intl_designator":"2024-038V","name":"STARLINK-31202","alt_names":[],"object_type":"PAYLOAD","status":"ACTIVE","operator":null,"country":"US","launch_date":"2024-02-25","launch_site_code":"AFETR","launch_vehicle":null,"mission":null,"orbit_class":"UNKNOWN","rcs_meters":null,"size_class":null,"mass_kg":null,"dimensions":null,"purposes":["comms"],"wikipedia_slug":null,"has_3d_model":false,"image_url":null,"decayed_at":null,"tle_current":{"epoch":"2026-05-25T04:27:06.182208Z","epoch_age_seconds":55031,"freshness":"FRESH","line1":"1 59042U 24038V   26145.18548822  .00003724  00000+0  14462-3 0  9998","line2":"2 59042  43.0034 311.0194 0002301 329.4148  30.6569 15.27620498126565","mean_motion":15.27620498,"eccentricity":0.0002301,"inclination_deg":43.0034,"raan_deg":311.0194,"arg_perigee_deg":329.4148,"mean_anomaly_deg":30.6569,"bstar":0.00014462,"rev_number":12656,"period_min":94.264249653974,"perigee_km":481.34910211949,"apogee_km":484.5065641557,"semimajor_km":6861.0648331376,"source":"CELESTRAK","updated_at":"2026-05-25T13:38:18.826357Z"}}}